Powrót do katalogu

STARLINK-34613

AktywnyŁącznośćSSO
NORAD 65294·PAYLOAD·🇺🇸 United States

Wystrzelony Aug 22, 2025 z Vandenberg Space Force Base

Loading…

Następne Przeloty (najbliższe 24 godziny)

TLE

ŚwieżeSource: CelesTrak SupGP

Epoka: Sep 14, 2026, 21:13 UTC

1 65294C 25184X   26257.88451389 -.00005926  00000+0 -18398-3 0  2576
2 65294  97.2840 305.9103 0001001  91.1292 226.1726 15.33438003    12

Śledź STARLINK-34613 w czasie rzeczywistym z AllMySat

Download on the App Store